Home > Weather > Cairns > Past weeks

Flag for Australia Weather for the Past 2 Weeks in Cairns, Queensland, Australia

Now
75 °F

Scattered clouds.


Feels Like: 74 °F
Forecast: 77 / 87 °F
Wind: No wind

Location: Cairns Airport

Current Time: Feb 11, 2016 at 7:21:42 AM

Latest Report: Feb 11, 2016 at 6:30 AM


Visibility: N/A

Pressure: 29.77 "Hg

Humidity: 94%

Dew point: 73 °F

Location of CairnsLocation

Historic Weather in Cairns — Graph

°F

Cairns Temperature Yesterday

Maximum temperature yesterday: 88 °F (at 11:00 AM)
Minimum temperature yesterday: 77 °F (at 11:30 PM)
Average temperature yesterday: 81 °F

High & Low Weather Summary for the Past Weeks

 TemperatureHumidityPressure
High93 °F (Feb 6, 11:00 AM)100% (Jan 28, 12:00 AM)29.86 "Hg (Jan 28, 12:00 AM)
Low75 °F (Feb 9, 4:00 AM)59% (Feb 4, 11:00 AM)29.53 "Hg (Feb 5, 3:30 PM)
Average84 °F83%29.73 "Hg
* Reported Jan 27 6:00 AM — Feb 11 6:00 AM, Cairns, Weather by CustomWeather, © 2016

Note: Actual official high and low records may vary slightly from our data, if they occured in-between our weather recording intervals... More about our weather records

Advertising

Cairns Weather History for the Previous 24 Hours

 ConditionsComfort  
Time TempWeatherWind HumidityBarometerVisibility
6:00 AM
Thu, Feb 11
75 °FPassing clouds.5 mph94%29.74 "HgN/A
5:30 AM75 °FPassing clouds.2 mph94%29.74 "HgN/A
5:00 AM77 °FSprinkles. Passing clouds.6 mph89%29.74 "HgN/A
4:30 AM77 °FPassing clouds.2 mph89%29.74 "HgN/A
4:00 AM77 °FPassing clouds.8 mph89%29.71 "HgN/A
3:30 AM77 °FScattered showers. Passing clouds.9 mph89%29.71 "HgN/A
3:00 AM77 °FPassing clouds.7 mph89%29.71 "HgN/A
2:30 AM77 °FPassing clouds.10 mph89%29.71 "HgN/A
2:00 AM77 °FPassing clouds.9 mph89%29.71 "HgN/A
1:30 AM77 °FPassing clouds.8 mph89%29.74 "HgN/A
1:00 AM77 °FPassing clouds.8 mph89%29.74 "HgN/A
12:30 AM77 °FPassing clouds.6 mph89%29.77 "HgN/A
12:00 AM77 °FPartly cloudy.9 mph89%29.77 "HgN/A
11:30 PM
Wed, Feb 10
77 °FPartly cloudy.9 mph89%29.77 "HgN/A
11:00 PM79 °FPassing clouds.7 mph79%29.77 "HgN/A
10:30 PM81 °FPassing clouds.8 mph74%29.77 "HgN/A
10:00 PM79 °FPassing clouds.8 mph84%29.77 "HgN/A
9:30 PM79 °FPassing clouds.8 mph79%29.77 "HgN/A
9:00 PM81 °FPassing clouds.7 mph74%29.77 "HgN/A
8:30 PM81 °FPassing clouds.8 mph74%29.77 "HgN/A
8:00 PM81 °FPartly cloudy.8 mph74%29.77 "HgN/A
7:30 PM81 °FPartly cloudy.9 mph74%29.77 "HgN/A
7:00 PM81 °FPassing clouds.8 mph74%29.74 "HgN/A
6:30 PM81 °FPartly sunny.8 mph74%29.74 "HgN/A
6:00 PM81 °FPartly sunny.10 mph74%29.74 "HgN/A
5:30 PM81 °FPartly sunny.10 mph74%29.71 "HgN/A
5:00 PM81 °FPartly sunny.13 mph74%29.71 "HgN/A
4:30 PM82 °FPartly sunny.10 mph74%29.71 "HgN/A
4:00 PM82 °FPartly sunny.9 mph74%29.71 "HgN/A
3:30 PM84 °FPartly sunny.13 mph70%29.71 "HgN/A
3:00 PM82 °FPartly sunny.10 mph74%29.71 "HgN/A
2:00 PM84 °FPartly sunny.10 mph70%29.74 "HgN/A
1:30 PM82 °FPartly sunny.18 mph74%29.74 "HgN/A
1:00 PM84 °FBroken clouds.10 mph70%29.74 "HgN/A
12:00 PM81 °FBroken clouds.9 mph79%29.77 "HgN/A
11:00 AM88 °FBroken clouds.9 mph66%29.77 "HgN/A
10:30 AM84 °FBroken clouds.8 mph70%29.77 "HgN/A
10:00 AM82 °FBroken clouds.12 mph74%29.80 "HgN/A
9:30 AM84 °FPartly sunny.10 mph70%29.80 "HgN/A
9:00 AM84 °FPartly sunny.9 mph74%29.80 "HgN/A
8:00 AM81 °FBroken clouds.9 mph79%29.77 "HgN/A
7:00 AM81 °FPartly sunny.8 mph74%29.74 "HgN/A
Weather by CustomWeather, © 2016

See weather overviewHow to use our weather pages